Okmulgee, OK

11:32 AM CDT on May 26, 2017 (GMT -0500)
Okmulgee Regional

Weather History for KOKM - November, 2012

Change the Weather History Date:

Monday, November 26, 2012

  Actual Average (KMKO) Record (KMKO)
Temperature  
Mean Temperature 44 °F -  
Max Temperature 50 °F 55 °F 71 °F (1998)
Min Temperature 37 °F 35 °F 21 °F (2010)
Degree Days  
Heating Degree Days 22    
Moisture  
Dew Point 35 °F    
Average Humidity 69    
Maximum Humidity 87    
Minimum Humidity 50    
Precipitation  
Precipitation 0.00 in - - ()
Sea Level Pressure  
Sea Level Pressure 30.07 in    
Wind  
Wind Speed 10 mph (NNE)    
Max Wind Speed 22 mph    
Max Gust Speed 29 mph    
Visibility 10 miles    
Events      
Averages and records for this station are not official NWS values.
T = Trace of Precipitation, MM = Missing Value Source: NWS Daily Summary

Daily Weather History Graph

Daily Weather History Graph

Search for Another Location

Airport or City:

Trip Planner

Search our weather history database for the weather conditions in past years. The results will help you decide how hot, cold, wet, or windy it might be!

Date:

Astronomy

Nov. 26, 2012 Rise Set
Actual Time 7:10 AM CST 5:11 PM CST
Civil Twilight 6:43 AM CST 5:39 PM CST
Nautical Twilight 6:11 AM CST 6:10 PM CST
Astronomical Twilight 5:41 AM CST 6:41 PM CST
Moon 4:02 PM CST 5:24 AM CST
Length of Visible Light 10h 56m
Length of Day
10h 00m
Waxing Gibbous, 97% of the Moon is Illuminated
Nov 26
Waxing Gibbous
Nov 28
Full
Dec 6
Last Quarter
Dec 13
New
Dec 19
First Quarter

Hourly Weather History & Observations

Time (CST) Temp. Windchill Dew Point Humidity Pressure Visibility Wind Dir Wind Speed Gust Speed Precip Events Conditions
12:15 AM 50.0 °F - 39.2 °F 66% 29.86 in 10.0 mi ENE 6.9 mph - N/A   Clear
12:35 AM 50.0 °F - 39.2 °F 66% 29.86 in 10.0 mi ENE 6.9 mph - N/A   Clear
12:55 AM 50.0 °F - 39.2 °F 66% 29.86 in 10.0 mi ENE 6.9 mph - N/A   Clear
1:15 AM 48.2 °F - 39.2 °F 71% 29.86 in 10.0 mi ENE 6.9 mph - N/A   Clear
1:35 AM 48.2 °F - 39.2 °F 71% 29.86 in 10.0 mi NE 6.9 mph - N/A   Clear
1:55 AM 48.2 °F - 41.0 °F 76% 29.86 in 10.0 mi NE 6.9 mph - N/A   Clear
2:15 AM 46.4 °F 44.3 °F 39.2 °F 76% 29.86 in 10.0 mi NE 4.6 mph - N/A   Clear
2:35 AM 46.4 °F 42.9 °F 41.0 °F 81% 29.86 in 10.0 mi North 6.9 mph - N/A   Clear
2:55 AM 46.4 °F 43.5 °F 41.0 °F 81% 29.86 in 10.0 mi North 5.8 mph - N/A   Clear
3:15 AM 46.4 °F 43.5 °F 41.0 °F 81% 29.86 in 10.0 mi NNE 5.8 mph - N/A   Clear
3:35 AM 46.4 °F 43.5 °F 41.0 °F 81% 29.86 in 10.0 mi NE 5.8 mph - N/A   Clear
3:55 AM 46.4 °F 42.9 °F 41.0 °F 81% 29.86 in 10.0 mi NE 6.9 mph - N/A   Clear
4:15 AM 44.6 °F 42.2 °F 41.0 °F 87% 29.86 in 10.0 mi NE 4.6 mph - N/A   Clear
4:35 AM 46.4 °F 43.5 °F 41.0 °F 81% 29.86 in 10.0 mi ENE 5.8 mph - N/A   Clear
4:55 AM 44.6 °F 40.2 °F 41.0 °F 87% 29.86 in 10.0 mi NE 8.1 mph - N/A   Clear
5:15 AM 44.6 °F 40.2 °F 41.0 °F 87% 29.87 in 10.0 mi NNE 8.1 mph - N/A   Clear
5:35 AM 44.6 °F 40.7 °F 41.0 °F 87% 29.88 in 10.0 mi NE 6.9 mph - N/A   Clear
5:55 AM 46.4 °F 42.4 °F 41.0 °F 81% 29.88 in 10.0 mi NE 8.1 mph - N/A   Clear
6:15 AM 44.6 °F 40.2 °F 39.2 °F 81% 29.89 in 10.0 mi NNE 8.1 mph - N/A   Clear
6:35 AM 44.6 °F 40.7 °F 39.2 °F 81% 29.89 in 10.0 mi NNE 6.9 mph - N/A   Scattered Clouds
6:55 AM 44.6 °F 38.4 °F 39.2 °F 81% 29.90 in 10.0 mi NNE 12.7 mph - N/A   Scattered Clouds
7:15 AM 44.6 °F 38.8 °F 39.2 °F 81% 29.91 in 10.0 mi NNE 11.5 mph - N/A   Overcast
7:35 AM 44.6 °F 38.8 °F 39.2 °F 81% 29.92 in 10.0 mi NNE 11.5 mph - N/A   Overcast
7:55 AM 46.4 °F 41.9 °F 39.2 °F 76% 29.94 in 10.0 mi North 9.2 mph - N/A   Overcast
8:15 AM 46.4 °F 41.9 °F 39.2 °F 76% 29.95 in 10.0 mi NNE 9.2 mph - N/A   Overcast
8:35 AM 46.4 °F 41.9 °F 39.2 °F 76% 29.96 in 10.0 mi NNE 9.2 mph - N/A   Overcast
8:55 AM 46.4 °F 41.9 °F 37.4 °F 71% 29.97 in 10.0 mi North 9.2 mph - N/A   Overcast
9:15 AM 46.4 °F 42.4 °F 37.4 °F 71% 29.98 in 10.0 mi North 8.1 mph - N/A   Overcast
9:35 AM 46.4 °F 41.5 °F 37.4 °F 71% 29.99 in 10.0 mi North 10.4 mph - N/A   Overcast
9:55 AM 46.4 °F 41.1 °F 37.4 °F 71% 30.00 in 10.0 mi North 11.5 mph - N/A   Overcast
10:15 AM 46.4 °F 41.5 °F 37.4 °F 71% 30.01 in 10.0 mi North 10.4 mph - N/A   Overcast
10:35 AM 46.4 °F 41.5 °F 37.4 °F 71% 30.02 in 10.0 mi North 10.4 mph - N/A   Overcast
10:55 AM 46.4 °F 40.1 °F 39.2 °F 76% 30.02 in 10.0 mi North 15.0 mph - N/A   Overcast
11:15 AM 44.6 °F 38.8 °F 39.2 °F 81% 30.03 in 10.0 mi North 11.5 mph - N/A   Overcast
11:35 AM 44.6 °F 39.2 °F 39.2 °F 81% 30.04 in 10.0 mi North 10.4 mph - N/A   Overcast
11:55 AM 44.6 °F 38.4 °F 37.4 °F 76% 30.04 in 10.0 mi North 12.7 mph 16.1 mph N/A   Overcast
12:15 PM 46.4 °F 40.1 °F 37.4 °F 71% 30.04 in 10.0 mi North 15.0 mph 21.9 mph N/A   Overcast
12:35 PM 46.4 °F 41.9 °F 35.6 °F 66% 30.04 in 10.0 mi North 9.2 mph 17.3 mph N/A   Overcast
12:55 PM 46.4 °F 39.2 °F 35.6 °F 66% 30.04 in 10.0 mi North 18.4 mph 23.0 mph N/A   Overcast
1:15 PM 44.6 °F 38.1 °F 35.6 °F 71% 30.05 in 10.0 mi North 13.8 mph 20.7 mph N/A   Overcast
1:35 PM 44.6 °F 38.1 °F 33.8 °F 66% 30.07 in 10.0 mi North 13.8 mph 19.6 mph N/A   Overcast
1:55 PM 44.6 °F 37.8 °F 33.8 °F 66% 30.08 in 10.0 mi North 15.0 mph 20.7 mph N/A   Overcast
2:15 PM 46.4 °F 39.8 °F 33.8 °F 62% 30.09 in 10.0 mi North 16.1 mph 19.6 mph N/A   Overcast
2:35 PM 46.4 °F 39.0 °F 33.8 °F 62% 30.09 in 10.0 mi North 19.6 mph 24.2 mph N/A   Mostly Cloudy
2:55 PM 46.4 °F 39.0 °F 33.8 °F 62% 30.10 in 10.0 mi North 19.6 mph 25.3 mph N/A   Mostly Cloudy
3:15 PM 46.4 °F 39.5 °F 33.8 °F 62% 30.12 in 10.0 mi North 17.3 mph 28.8 mph N/A   Overcast
3:35 PM 46.4 °F 40.1 °F 32.0 °F 57% 30.14 in 10.0 mi North 15.0 mph 21.9 mph N/A   Overcast
3:55 PM 46.4 °F 39.5 °F 32.0 °F 57% 30.14 in 10.0 mi NNE 17.3 mph 23.0 mph N/A   Overcast
4:15 PM 46.4 °F 39.5 °F 32.0 °F 57% 30.16 in 10.0 mi NNE 17.3 mph 21.9 mph N/A   Overcast
4:35 PM 46.4 °F 39.2 °F 32.0 °F 57% 30.17 in 10.0 mi NNE 18.4 mph 23.0 mph N/A   Overcast
4:55 PM 46.4 °F 40.1 °F 32.0 °F 57% 30.18 in 10.0 mi NNE 15.0 mph 24.2 mph N/A   Overcast
5:15 PM 46.4 °F 40.1 °F 32.0 °F 57% 30.20 in 10.0 mi NNE 15.0 mph 18.4 mph N/A   Overcast
5:35 PM 46.4 °F 40.7 °F 32.0 °F 57% 30.20 in 10.0 mi NNE 12.7 mph 20.7 mph N/A   Overcast
5:55 PM 46.4 °F 38.5 °F 30.2 °F 53% 30.21 in 10.0 mi North 21.9 mph 27.6 mph N/A   Overcast
6:15 PM 46.4 °F 39.2 °F 30.2 °F 53% 30.22 in 10.0 mi North 18.4 mph 25.3 mph N/A   Overcast
6:35 PM 46.4 °F 39.8 °F 28.4 °F 50% 30.23 in 10.0 mi NNE 16.1 mph 26.5 mph N/A   Overcast
6:55 PM 44.6 °F 39.2 °F 28.4 °F 53% 30.25 in 10.0 mi North 10.4 mph - N/A   Scattered Clouds
7:15 PM 44.6 °F 37.8 °F 28.4 °F 53% 30.27 in 10.0 mi North 15.0 mph 19.6 mph N/A   Clear
7:35 PM 44.6 °F 37.8 °F 28.4 °F 53% 30.28 in 10.0 mi NNE 15.0 mph 21.9 mph N/A   Clear
7:55 PM 42.8 °F 36.2 °F 28.4 °F 57% 30.29 in 10.0 mi North 12.7 mph - N/A   Clear
8:15 PM 42.8 °F 36.6 °F 28.4 °F 57% 30.31 in 10.0 mi North 11.5 mph - N/A   Clear
8:35 PM 42.8 °F 35.8 °F 28.4 °F 57% 30.31 in 10.0 mi NNE 13.8 mph - N/A   Clear
8:55 PM 41.0 °F 33.1 °F 28.4 °F 61% 30.32 in 10.0 mi NNE 15.0 mph - N/A   Clear
9:15 PM 41.0 °F 32.5 °F 28.4 °F 61% 30.33 in 10.0 mi NNE 17.3 mph 21.9 mph N/A   Clear
9:35 PM 41.0 °F 33.1 °F 28.4 °F 61% 30.33 in 10.0 mi North 15.0 mph 18.4 mph N/A   Clear
9:55 PM 41.0 °F 34.3 °F 28.4 °F 61% 30.34 in 10.0 mi NNE 11.5 mph 20.7 mph N/A   Clear
10:15 PM 39.2 °F 32.0 °F 28.4 °F 65% 30.35 in 10.0 mi North 11.5 mph - N/A   Clear
10:35 PM 39.2 °F 30.8 °F 28.4 °F 65% 30.35 in 10.0 mi North 15.0 mph - N/A   Clear
10:55 PM 39.2 °F 31.2 °F 28.4 °F 65% 30.36 in 10.0 mi North 13.8 mph - N/A   Clear
11:15 PM 39.2 °F 30.5 °F 30.2 °F 70% 30.36 in 10.0 mi NNE 16.1 mph 21.9 mph N/A   Clear
11:35 PM 37.4 °F 29.8 °F 30.2 °F 75% 30.36 in 10.0 mi North 11.5 mph - N/A   Clear
11:55 PM 37.4 °F 29.3 °F 30.2 °F 75% 30.35 in 10.0 mi North 12.7 mph 17.3 mph N/A   Clear